Pineville, WV

9:07 AM EDT on July 26, 2017 (GMT -0400)
Pineville

Weather History for KI16 - March, 2014

Change the Weather History Date:

Friday, March 21, 2014

  Actual Average (KBKW) Record (KBKW)
Temperature  
Mean Temperature 48 °F -  
Max Temperature 69 °F 53 °F 80 °F (1921)
Min Temperature 28 °F 31 °F 4 °F (1965)
Degree Days  
Heating Degree Days 16    
Moisture  
Dew Point 29 °F    
Average Humidity 59    
Maximum Humidity 97    
Minimum Humidity 19    
Precipitation  
Precipitation 0.00 in - - ()
Sea Level Pressure  
Sea Level Pressure 30.08 in    
Wind  
Wind Speed - (North)    
Max Wind Speed -    
Max Gust Speed -    
Visibility 10 miles    
Events      
Averages and records for this station are not official NWS values.
T = Trace of Precipitation, MM = Missing Value Source: NWS Daily Summary

Daily Weather History Graph

Daily Weather History Graph

Search for Another Location

Airport or City:

Trip Planner

Search our weather history database for the weather conditions in past years. The results will help you decide how hot, cold, wet, or windy it might be!

Date:

Astronomy

Mar. 21, 2014 Rise Set
Actual Time 7:28 AM EDT 7:39 PM EDT
Civil Twilight 7:02 AM EDT 8:05 PM EDT
Nautical Twilight 6:31 AM EDT 8:35 PM EDT
Astronomical Twilight 6:00 AM EDT 9:06 PM EDT
Moon No Moon Rise 10:24 AM EDT (3/21)
Length of Visible Light 13h 03m
Length of Day
12h 10m
Waning Gibbous, 75% of the Moon is Illuminated
Mar 21
Waning Gibbous
Mar 23
Last Quarter
Mar 30
New
Apr 7
First Quarter
Apr 15
Full

Hourly Weather History & Observations

Time (EDT) Temp. Dew Point Humidity Pressure Visibility Wind Dir Wind Speed Gust Speed Precip Events Conditions
12:15 AM 32.9 °F 28.9 °F 85% 30.11 in 10.0 mi North - - N/A   Clear
12:35 AM 32.2 °F 28.6 °F 87% 30.12 in 10.0 mi North - - N/A   Clear
12:55 AM 32.0 °F 28.6 °F 87% 30.12 in 10.0 mi North - - N/A   Clear
1:15 AM 32.0 °F 28.4 °F 87% 30.12 in 10.0 mi North - - N/A   Clear
1:35 AM 32.0 °F 28.2 °F 86% 30.12 in 10.0 mi North - - N/A   Clear
1:55 AM 31.6 °F 28.8 °F 89% 30.12 in 10.0 mi North - - N/A   Clear
2:15 AM 31.6 °F 28.4 °F 88% 30.12 in 10.0 mi North - - N/A   Clear
2:35 AM 31.1 °F 28.6 °F 90% 30.12 in 10.0 mi North - - N/A   Clear
2:55 AM 30.9 °F 28.4 °F 90% 30.12 in 10.0 mi North - - N/A   Clear
3:15 AM 30.7 °F 28.8 °F 92% 30.12 in 10.0 mi North - - N/A   Clear
3:35 AM 30.6 °F 28.4 °F 92% 30.12 in 10.0 mi North - - N/A   Clear
3:55 AM 30.4 °F 28.6 °F 93% 30.11 in 10.0 mi North - - N/A   Clear
4:15 AM 30.4 °F 28.6 °F 93% 30.12 in 10.0 mi North - - N/A   Clear
4:35 AM 30.2 °F 28.4 °F 93% 30.11 in 10.0 mi North - - N/A   Scattered Clouds
4:55 AM 30.2 °F 28.4 °F 93% 30.11 in 10.0 mi North - - N/A   Clear
5:15 AM 30.0 °F 28.8 °F 95% 30.12 in 10.0 mi North - - N/A   Clear
5:35 AM 29.7 °F 28.4 °F 95% 30.13 in 10.0 mi North - - N/A   Clear
5:55 AM 29.7 °F 28.4 °F 95% 30.13 in 10.0 mi North - - N/A   Clear
6:15 AM 29.3 °F 28.0 °F 95% 30.13 in 10.0 mi North - - N/A   Clear
6:35 AM 29.1 °F 28.2 °F 96% 30.13 in 10.0 mi North - - N/A   Clear
6:55 AM 29.3 °F 28.2 °F 96% 30.13 in 10.0 mi North - - N/A   Clear
7:15 AM 28.9 °F 27.9 °F 96% 30.14 in 10.0 mi North - - N/A   Clear
7:35 AM 29.1 °F 28.2 °F 96% 30.14 in 10.0 mi North - - N/A   Clear
7:55 AM 28.9 °F 28.2 °F 97% 30.14 in 10.0 mi North - - N/A   Clear
8:15 AM 29.7 °F 28.6 °F 96% 30.15 in 10.0 mi North - - N/A   Clear
8:35 AM 30.6 °F 29.1 °F 94% 30.15 in 10.0 mi North - - N/A   Clear
8:55 AM 32.0 °F 29.7 °F 91% 30.15 in 10.0 mi North - - N/A   Clear
9:15 AM 33.8 °F 29.8 °F 85% 30.15 in 10.0 mi North - - N/A   Clear
9:35 AM 38.7 °F 30.9 °F 74% 30.15 in 10.0 mi North - - N/A   Clear
9:55 AM 43.5 °F 31.5 °F 63% 30.15 in 10.0 mi North - - N/A   Clear
10:15 AM 48.0 °F 31.3 °F 52% 30.15 in 10.0 mi North - - N/A   Clear
10:35 AM 50.4 °F 29.8 °F 45% 30.16 in 10.0 mi North - - N/A   Clear
10:55 AM 54.0 °F 30.4 °F 41% 30.16 in 10.0 mi North - - N/A   Clear
11:15 AM 55.9 °F 30.9 °F 39% 30.15 in 10.0 mi North - - N/A   Clear
11:35 AM 57.7 °F 30.4 °F 35% 30.16 in 10.0 mi North - - N/A   Clear
11:55 AM 58.5 °F 29.8 °F 34% 30.15 in 10.0 mi North - - N/A   Clear
12:15 PM 60.1 °F 29.8 °F 32% 30.14 in 10.0 mi North - - N/A   Clear
12:35 PM 61.3 °F 29.8 °F 30% 30.13 in 10.0 mi North - - N/A   Clear
12:55 PM 61.7 °F 29.8 °F 30% 30.12 in 10.0 mi North - - N/A   Clear
1:15 PM 63.5 °F 29.8 °F 28% 30.11 in 10.0 mi North - - N/A   Clear
1:35 PM 64.4 °F 29.8 °F 27% 30.10 in 10.0 mi North - - N/A   Clear
1:55 PM 65.3 °F 29.7 °F 26% 30.09 in 10.0 mi North - - N/A   Clear
2:15 PM 66.4 °F 29.5 °F 25% 30.08 in 10.0 mi North - - N/A   Clear
2:35 PM 66.9 °F 29.1 °F 24% 30.07 in 10.0 mi North - - N/A   Clear
2:55 PM 67.1 °F 28.0 °F 23% 30.06 in 10.0 mi North - - N/A   Clear
3:15 PM 68.2 °F 28.2 °F 22% 30.05 in 10.0 mi North - - N/A   Clear
3:35 PM 68.2 °F 27.5 °F 22% 30.05 in 10.0 mi North - - N/A   Clear
3:55 PM 68.5 °F 26.8 °F 21% 30.04 in 10.0 mi North - - N/A   Clear
4:15 PM 69.3 °F 26.1 °F 20% 30.03 in 10.0 mi North - - N/A   Clear
4:35 PM 69.8 °F 25.9 °F 19% 30.03 in 10.0 mi North - - N/A   Clear
4:55 PM 69.6 °F 25.5 °F 19% 30.02 in 10.0 mi North - - N/A   Clear
5:15 PM 69.1 °F 24.8 °F 19% 30.01 in 10.0 mi North - - N/A   Clear
5:35 PM 68.5 °F 24.6 °F 19% 30.01 in 10.0 mi North - - N/A   Clear
5:55 PM 67.6 °F 24.6 °F 20% 30.01 in 10.0 mi North - - N/A   Clear
6:15 PM 65.1 °F 25.7 °F 23% 30.01 in 10.0 mi North - - N/A   Clear
6:35 PM 62.8 °F 28.9 °F 28% 30.00 in 10.0 mi North - - N/A   Clear
6:55 PM 61.5 °F 28.8 °F 29% 30.00 in 10.0 mi North - - N/A   Clear
7:15 PM 57.6 °F 32.0 °F 38% 30.01 in 10.0 mi North - - N/A   Clear
7:35 PM 54.7 °F 32.5 °F 43% 30.00 in 10.0 mi North - - N/A   Clear
7:55 PM 53.4 °F 32.4 °F 45% 30.01 in 10.0 mi North - - N/A   Clear
8:15 PM 52.9 °F 32.4 °F 46% 30.00 in 10.0 mi North - - N/A   Clear
8:35 PM 52.3 °F 33.8 °F 49% 30.00 in 10.0 mi North - - N/A   Clear
8:55 PM 51.3 °F 34.0 °F 52% 30.00 in 10.0 mi North - - N/A   Clear
9:15 PM 50.0 °F 34.0 °F 54% 30.01 in 10.0 mi North - - N/A   Clear
9:35 PM 48.7 °F 33.3 °F 55% 30.01 in 10.0 mi North - - N/A   Clear
9:55 PM 48.6 °F 33.6 °F 56% 30.01 in 10.0 mi North - - N/A   Clear
10:15 PM 47.3 °F 33.3 °F 58% 30.01 in 10.0 mi North - - N/A   Clear
10:35 PM 46.4 °F 32.9 °F 59% 30.01 in 10.0 mi North - - N/A   Clear
10:55 PM 45.9 °F 32.4 °F 59% 30.01 in 10.0 mi North - - N/A   Clear
11:15 PM 45.5 °F 32.5 °F 61% 30.01 in 10.0 mi North - - N/A   Clear
11:35 PM 45.1 °F 33.3 °F 63% 30.01 in 10.0 mi North - - N/A   Clear
11:55 PM 44.1 °F 33.8 °F 67% 30.01 in 10.0 mi North - - N/A   Clear